This demonstration page uses our WeatherBlox Daily Observations layout. Learn more.

Left ArrowRight Arrow

Hourly Observations for April 26, 2017

Temp ( °F °C ) Dew Point ( °F °C ) Humidity (%) Winds ( mph kmh ) Pressure ( in mb ) Visibility ( mi km ) Precip ( " mm )
12:53 am 00:53 Cloudy 57 13.9 54 12.2 90 90 Calm 30.01 1016 10 16 0.02 0.51
1:53 am 01:53 Cloudy 56 13.3 54 12.2 93 93 NNW 3 6 29.99 1016 10 16 0.00 0.00
2:53 am 02:53 Cloudy 55 12.8 54 12.2 96 96 NW 5 7 29.96 1015 10 16 0.00 0.00
3:53 am 03:53 Cloudy 56 13.3 54 12.2 93 93 NW 5 7 29.96 1015 10 16 0.00 0.00
4:53 am 04:53 Cloudy 56 13.3 54 12.2 93 93 Calm 29.97 1015 10 16 0.00 0.03
5:53 am 05:53 Cloudy 56 13.3 55 12.8 97 97 Calm 29.96 1015 10 16 0.00 0.00
6:53 am 06:53 Cloudy with Mist and Fog 56 13.3 54 12.2 93 93 Calm 29.95 1014 4 6 0.00 0.03
7:17 am 07:17 Cloudy 56 13.3 54 12.2 93 93 Calm 29.97 1015 8 13 0.00 0.00
7:53 am 07:53 Cloudy with Mist and Fog 56 13.3 55 12.8 97 97 Calm 29.96 1014 4 6 0.00 0.00
8:27 am 08:27 Cloudy with Light Rain 56 13.3 55 12.8 97 97 N 3 6 29.97 1015 4 6 0.01 0.25
8:53 am 08:53 Cloudy with Mist and Fog 56 13.3 55 12.8 97 97 Calm 29.94 1014 4 6 0.01 0.25
8:58 am 08:58 Cloudy with Mist and Fog 55 13 55 13 100 100 Calm 29.94 1014 4 6 0.00 0.00
9:36 am 09:36 Cloudy with Mist and Fog 57 14 55 13 94 94 SSW 3 6 29.91 1013 3 5 0.00 0.00
9:41 am 09:41 Cloudy with Mist and Fog 57 13.9 56 13.3 96 96 VRB 3 6 29.91 1013 3 4 0.01 0.25
9:43 am 09:43 Cloudy with Mist and Fog 57 13.9 56 13.3 96 96 SSW 6 9 29.91 1013 3 5 0.01 0.25
9:53 am 09:53 Cloudy with Mist and Fog 57 13.9 56 13.3 96 96 SSW 8 13 29.94 1014 3 5 0.01 0.25
10:53 am 10:53 Cloudy with Mist and Fog 58 14.4 55 12.8 90 90 S 15 24 29.94 1014 5 8 0.02 0.51
11:53 am 11:53 Cloudy 59 15 55 12.8 87 87 S 13 20 29.93 1014 10 16 0.00 0.03
12:53 pm 12:53 Cloudy with Mist and Fog 59 15 55 12.8 87 87 S 10 17 29.94 1014 6 10 0.00 0.03
1:53 pm 13:53 Cloudy 62 16.7 57 13.9 84 84 S 10 17 29.93 1014 10 16 0.01 0.25
2:38 pm 14:38 Cloudy 63 17 57 14 83 83 S 14 22 29.91 1013 10 16 0.00 0.00
2:53 pm 14:53 Mostly Cloudy 66 18.9 58 14.4 75 75 SSW 13 20 29.91 1013 10 16 0.00 0.00
3:12 pm 15:12 Mostly Cloudy 66 19 57 14 73 73 SSW 15 24 29.91 1013 10 16 0.00 0.00
3:48 pm 15:48 Mostly Cloudy 68 20 57 14 69 69 SSW 14 22 29.88 1012 10 16 0.00 0.00
3:53 pm 15:53 Mostly Cloudy 67 19.4 56 13.3 68 68 SW 14 22 29.88 1012 10 16 0.00 0.00
4:03 pm 16:03 Partly Cloudy 66 19 55 13 68 68 SW 10 17 29.91 1013 10 16 0.00 0.00
4:53 pm 16:53 Mostly Cloudy 68 20 58 14.4 70 70 S 12 19 29.88 1012 10 16 0.00 0.00
5:53 pm 17:53 Partly Cloudy 68 20 58 14.4 70 70 SSW 9 15 29.88 1012 10 16 0.00 0.00
6:53 pm 18:53 Mostly Cloudy 67 19.4 58 14.4 73 73 S 8 13 29.89 1012 10 16 0.00 0.00
7:53 pm 19:53 Mostly Sunny 65 18.3 59 15 81 81 Calm 29.90 1013 10 16 0.00 0.00
8:53 pm 20:53 Clear 62 16.7 47 8.3 58 58 NW 6 9 29.91 1013 10 16 0.00 0.00
9:53 pm 21:53 Clear 61 16.1 45 7.2 56 56 undefined N/A 29.94 1014 10 16 0.00 0.00
10:53 pm 22:53 Clear 60 15.6 44 6.7 56 56 NW 8 13 29.96 1015 10 16 0.00 0.00
11:53 pm 23:53 Clear 58 14.4 43 6.1 58 58 W 3 6 29.97 1015 10 16 0.00 0.00

Powered by AerisWeather